HS9UAC-10 Weather Reports


time (UTC)temp
F
wind
direction
speed
knots
gust
knots
rain 1hr
in
rain 24hr
in
rain mn
in
humidity
%
barometer
mb
20260504140801 99 0 0.0 0.0 0.00 0.00 0.00 61 1008.0
20260504130810 98 0 0.0 0.0 0.00 0.00 0.00 63 1007.0
20260504050559 102 0 0.0 0.0 0.00 0.00 0.00 47 1009.0
20260504045650 103 0 0.0 0.0 0.00 0.00 0.00 46 1009.0
20260504044125 102 0 0.0 0.0 0.00 0.00 0.00 48 1009.0
20260504042601 102 0 0.0 0.0 0.00 0.00 0.00 49 1009.0
20260504041036 102 0 0.0 0.0 0.00 0.00 0.00 49 1010.0
20260504035512 103 0 0.0 0.0 0.00 0.00 0.00 50 1010.0
20260504033947 102 0 0.0 0.0 0.00 0.00 0.00 52 1010.0
20260504032422 100 0 0.0 0.0 0.00 0.00 0.00 55 1010.0
20260504030858 100 0 0.0 0.0 0.00 0.00 0.00 57 1010.0
20260504025333 101 0 0.0 0.0 0.00 0.00 0.00 56 1010.0
20260504023808 100 0 0.0 0.0 0.00 0.00 0.00 57 1010.0
20260504022244 98 0 0.0 0.0 0.00 0.00 0.00 63 1009.0
20260504020719 99 0 0.0 0.0 0.00 0.00 0.00 64 1009.0
20260504015155 97 0 0.0 0.0 0.00 0.00 0.00 67 1009.0
20260504013630 96 0 0.0 0.0 0.00 0.00 0.00 73 1009.0
20260504012106 95 0 0.0 0.0 0.00 0.00 0.00 78 1009.0
20260504010541 95 0 0.0 0.0 0.00 0.00 0.00 79 1009.0
20260504005017 94 0 0.0 0.0 0.00 0.00 0.00 82 1008.0
20260504003452 94 0 0.0 0.0 0.00 0.00 0.00 83 1008.0
20260504002616 93 0 0.0 0.0 0.00 0.00 0.00 84 1008.0
20260504001051 92 0 0.0 0.0 0.00 0.00 0.00 87 1008.0
20260503235526 91 0 0.0 0.0 0.00 0.00 0.00 89 1008.0
20260503234001 91 0 0.0 0.0 0.00 0.00 0.00 90 1008.0
20260503232437 90 0 0.0 0.0 0.00 0.00 0.00 90 1007.0
20260503230912 91 0 0.0 0.0 0.00 0.00 0.00 86 1007.0
20260503225348 91 0 0.0 0.0 0.00 0.00 0.00 86 1007.0
20260503223823 91 0 0.0 0.0 0.00 0.00 0.00 85 1007.0
20260503222258 91 0 0.0 0.0 0.00 0.00 0.00 85 1007.0
20260503220733 91 0 0.0 0.0 0.00 0.00 0.00 86 1007.0
20260503215209 91 0 0.0 0.0 0.00 0.00 0.00 86 1007.0
20260503213644 92 0 0.0 0.0 0.00 0.00 0.00 84 1007.0
20260503212120 92 0 0.0 0.0 0.00 0.00 0.00 84 1007.0
20260503210555 93 0 0.0 0.0 0.00 0.00 0.00 82 1007.0
20260503205031 93 0 0.0 0.0 0.00 0.00 0.00 81 1007.0
20260503203506 92 0 0.0 0.0 0.00 0.00 0.00 83 1007.0
20260503201941 92 0 0.0 0.0 0.00 0.00 0.00 83 1007.0
20260503200417 93 0 0.0 0.0 0.00 0.00 0.00 82 1007.0
20260503194852 93 0 0.0 0.0 0.00 0.00 0.00 80 1007.0
20260503193327 93 0 0.0 0.0 0.00 0.00 0.00 80 1007.0
20260503191803 94 0 0.0 0.0 0.00 0.00 0.00 80 1007.0
20260503190238 93 0 0.0 0.0 0.00 0.00 0.00 82 1007.0
20260503184714 94 0 0.0 0.0 0.00 0.00 0.00 79 1007.0
20260503183149 94 0 0.0 0.0 0.00 0.00 0.00 79 1007.0
20260503181624 93 0 0.0 0.0 0.00 0.00 0.00 80 1007.0
20260503180100 94 0 0.0 0.0 0.00 0.00 0.00 79 1007.0
20260503174535 94 0 0.0 0.0 0.00 0.00 0.00 78 1008.0
20260503173518 94 0 0.0 0.0 0.00 0.00 0.00 76 1008.0
20260503171953 95 0 0.0 0.0 0.00 0.00 0.00 75 1008.0
20260503170429 96 0 0.0 0.0 0.00 0.00 0.00 71 1008.0
20260503150112 98 0 0.0 0.0 0.00 0.00 0.00 65 1008.0